NOAA 16 DEB, 41667

Orbit data source: Space-Track

NOAA 16 DEB, 41667 is space debris in LEO originally from a launch on Thu, 21 Sep 2000 UTC launched from the Air Force Western Test Range (AFWTR). Debris objects in space refer to the collection of defunct objects orbiting the Earth. Examples of debris include non-operational satellites, rocket bodies, and fragments generated from explosions, collisions, or faulty payload assembly.

Loading next visibility...
NOAA 16 DEB details
Identifier
41667, 2000-055PG
Orbit
LEO
Last TLE update3 days ago
Origin
Flag of USNOAA (US)
ManufacturerUnknown
MissionSpacecraft
Bus & MotorUnknown
MassUnknown
Launch date (UTC)
2000-09-21 (24 years ago)
Launch vehicleUnknown
Launch site
Air Force Western Test Range (AFWTR)
Object type
Payload
Rocket body
Debris
Shape & HBRUnknown
Radar Cross SectionSmall (<0.1 m²)

Expand to show TLE details & history

TLE from 3 days ago
0 NOAA 16 DEB
1 41667U 00055PG  24337.51845632  .00003859  00000-0  17122-2 0  9997
2 41667  98.7686  72.6651 0029752   4.0543 356.0871 14.23375138448146
Epoch: 2024-12-02T12:26Z
Definitive object data (Epoch: 2024-12-02T12:26:34.626Z)
Latitude0.00003°
Longitude174.17966°
Altitude795.526 km
Speed7.467 km/s
True Right ascension04h 50m 39s
True Declination0° 00' 00"
Sunlit
Object was in full shadow at TLE epoch
Visualization TLE readout
Latitude64.01035°
Longitude158.50926°
Altitude817.171 km
Speed7.455 km/s
Apparent Right ascension13h 14m 14s
Apparent Declination49° 43' 19"
Sunlit
Object is in full shadow
Visualization observer readout
Local Sidereal Time02:48:49
Azimuth15.038° NNE
Elevation2.024°
Doppler factor1
Orbital elements
Apogee altitude832.507 km
Perigee altitude789.728 km
Semi-major axis7,189.255 km
Eccentricity0.0029752
Inclination98.7686°
RAAN72.6651°
Arg. of periapsis4.0543°
True anomaly356.06375°
Mean anomaly356.0871°
Eccentric anomaly356.07543°
Mean motion3.56055 °/min
BSTAR0.0017122
Orbital period101.11 mins
Loading maneuver chart data...
Loading historical data...
Loading historical data...
Loading historical data...
Loading historical data...
Loading historical data...
Loading historical data...
Loading historical data...

NOAA 16 DEB Visibility forecast

Observer location: undefined°, undefined

Span
Click to sort rows by Start time (UTC) header in descending order
Start Az.
Max El. time (UTC)
Max El. Az.
Max El.
End time (UTC)
End Az.
9 mins2024-12-05 06:21:20.754Z157.924° S2024-12-05 06:25:20.754Z114.477° SE43.496°2024-12-05 06:30:20.754Z350.369° N
7 mins2024-12-05 18:39:20.754Z46.043° ENE2024-12-05 18:42:20.754Z92.591° ESE27.19°2024-12-05 18:46:20.754Z152.152° SSE
7 mins2024-12-05 20:19:20.754Z343.082° N2024-12-05 20:22:20.754Z293.895° NW28.701°2024-12-05 20:26:20.754Z234.898° WSW
|